Tracking 19644 objects as of 25-Apr-2019
HD Live streaming from Space Station
objects crossing your sky now

DELTA 4 R/B

Track DELTA 4 R/B now!


NORAD ID: 32288
Int'l Code: 2007-054B
Perigee: 36,039.7 km
Apogee: 38,109.4 km
Inclination: 5.5 °
Period: 1,502.0 minutes
Semi major axis: 43445 km
RCS: Unknown
Launch date: November 11, 2007
Source: United States (US)
Launch site: AIR FORCE EASTERN TEST RANGE (AFETR)

Note: This is a ROCKET BODY
aabbcc
Your satellite tracking list
Your tracking list is empty




NASA's NSSDC Master Catalog

Two Line Element Set (TLE):
1 32288U 07054B   19114.99672284 -.00000157 +00000-0 +00000-0 0  9996
2 32288 005.5487 071.8266 0238191 071.0522 291.4460 00.95870395000209
Source of the keplerian elements: McCants